Dewpoint
54 53 52 53 53 54 54 54 54 54 53 54 54 54 55 56 54 48 47 50 49 52 49 41 38 42 44 40 44 45 26 18 20 21 16 30 28 25 37 34 29 31 35 41 44
52 52 54 54 54 53 53 54 53 52 52 52 53 54 55 55 48 45 51 52 52 51 41 40 37 39 37 39 41 35 26 17 25 25 23 26 31 29 31 27 28 30 30 32 35
53 53 53 53 53 52 52 52 52 53 53 53 53 53 55 52 44 44 52 51 52 48 45 42 41 38 33 37 38 37 28 30 27 30 32 32 31 31 30 29 26 25 29 31 35
52 52 52 53 53 52 52 52 51 52 53 52 52 53 54 47 28 47 52 50 51 46 43 41 39 37 34 30 36 34 34 34 34 34 35 31 31 31 31 30 29 31 30 32 34
51 52 52 52 52 51 51 50 51 52 52 52 52 53 48 35 36 47 52 49 46 45 43 41 39 38 34 34 36 35 32 33 34 35 34 34 32 31 31 32 31 32 33 33 34
52 52 52 51 50 51 50 50 51 51 52 52 52 52 44 30 46 50 51 47 45 44 43 42 40 41 38 36 36 35 36 35 36 35 34 33 32 31 30 30 30 31 32 33 33
52 52 52 51 51 51 50 50 51 52 52 52 50 49 44 35 45 47 49 46 46 45 42 44 43 40 39 36 37 37 35 33 32 32 32 34 30 30 32 31 30 29 29 32 33
51 52 51 51 50 49 49 50 51 53 52 51 50 48 37 44 47 46 47 45 46 46 45 45 45 41 40 38 35 32 32 30 29 31 31 33 27 27 29 29 28 29 30 32 34
51 51 50 50 49 49 49 51 52 53 50 50 48 45 35 45 42 45 46 42 44 45 46 45 44 39 38 34 35 31 31 28 28 30 30 31 29 28 30 30 29 29 29 29 32
50 50 50 50 49 49 50 52 52 52 51 49 46 42 39 36 41 45 47 44 42 43 42 41 40 37 36 36 30 29 28 27 28 28 30 30 29 30 30 30 30 29 29 30 30
50 50 50 49 48 49 49 46 39 38 44 37 35 36 36 40 42 43 45 43 42 39 35 38 37 34 30 32 31 31 31 30 30 31 31 29 29 29 29 29 29 29 30 30 30
50 50 49 48 47 49 49 41 40 42 37 39 38 40 41 41 36 40 45 38 37 33 36 36 34 31 33 33 32 32 30 31 30 30 30 30 29 29 29 29 29 29 29 30 31
50 49 48 47 48 48 46 43 47 44 37 34 37 37 39 40 36 36 42 39 36 34 33 33 31 33 33 33 33 32 30 29 30 31 31 29 26 23 24 26 26 28 29 31 32
50 48 48 47 46 46 44 46 46 40 38 37 32 38 40 40 36 40 41 38 37 33 35 35 34 33 33 34 33 31 30 31 31 32 27 30 24 25 24 25 27 28 28 29 31
51 48 47 46 45 44 45 45 45 40 32 34 35 42 41 38 37 39 43 40 34 32 35 32 31 32 33 32 33 32 33 34 34 32 31 28 29 21 21 23 29 31 32 33 30
52 49 47 45 46 46 47 43 40 37 27 34 35 36 36 37 37 41 41 42 40 37 35 35 36 36 34 34 34 34 34 32 37 33 26 23 25 19 20 25 29 30 32 36 35
52 50 46 44 43 47 45 41 36 33 22 27 29 35 33 32 33 36 36 36 33 32 31 30 30 34 36 33 32 35 31 27 25 26 21 21 24 22 23 29 31 32 33 36 39
52 51 48 43 47 46 42 29 26 23 19 30 31 33 30 30 31 33 33 31 33 31 31 31 28 28 35 32 29 30 30 27 21 19 23 21 23 18 26 31 32 34 36 38 37
51 46 44 44 47 45 37 33 29 19 18 27 31 27 26 30 31 31 30 28 29 32 29 27 29 29 30 31 32 30 30 31 31 24 25 19 20 23 26 31 34 35 38 38 39
45 44 43 45 46 42 35 29 24 22 29 29 15 21 17 25 28 28 26 28 30 32 32 28 27 28 30 31 32 31 32 31 29 22 17 15 15 24 25 31 35 36 38 37 40
45 41 44 46 45 39 33 31 29 29 31 28 23 18 21 24 27 25 22 26 29 31 33 31 29 26 29 24 22 27 28 32 34 30 23 18 17 22 30 30 35 37 38 41 40
44 37 45 45 38 36 34 31 33 30 31 32 30 27 23 26 26 26 24 26 29 32 29 31 30 28 24 25 28 27 26 28 29 25 28 27 21 30 29 30 35 37 41 43 42
41 41 46 45 34 34 32 32 33 33 32 31 31 31 29 27 23 26 28 30 31 31 30 31 27 24 17 22 26 25 23 26 29 33 24 24 18 24 24 25 36 38 42 44 44
41 35 41 41 40 34 32 30 30 36 32 33 31 33 31 29 29 25 28 32 31 32 38 34 28 25 19 18 20 21 23 25 26 26 22 20 19 19 22 27 37 39 40 44 44
42 35 38 34 35 36 31 31 29 27 33 31 30 30 30 26 28 28 30 30 31 34 34 32 27 27 28 27 26 26 26 26 25 26 23 18 19 21 21 30 40 40 40 43 43
39 37 38 34 37 36 36 31 28 28 30 30 30 31 30 25 25 24 28 27 25 30 32 34 26 28 25 22 25 24 24 24 22 21 20 20 19 19 27 41 39 40 40 42 43
43 43 39 35 32 33 34 33 31 30 31 29 32 29 31 31 29 28 27 27 28 27 29 28 27 25 19 22 22 18 17 18 18 16 16 15 17 21 31 37 39 39 40 42 43
Lifted_Index
10 10 10 10 9 9 9 9 9 10 10 10 10 10 9 9 10 10 9 9 10 11 12 13 13 12 11 11 10 9 8 7 8 9 10 11 11 11 11 11 11 11 10 10 10
10 10 10 9 9 9 9 10 10 10 10 10 10 10 9 10 10 10 9 9 10 11 12 12 12 12 12 11 10 10 9 9 10 11 11 12 12 12 11 11 11 11 11 10 11
10 10 9 9 9 10 10 10 10 10 10 10 10 10 10 9 9 9 9 9 10 11 12 12 12 12 11 11 11 10 10 11 12 12 12 12 12 12 11 10 10 11 11 11 11
10 10 10 9 10 10 10 10 10 10 10 10 10 10 10 9 9 9 9 9 11 11 12 12 12 11 11 11 11 10 11 11 11 11 11 11 11 10 9 8 8 9 10 10 11
10 10 10 10 10 10 10 10 10 10 10 10 10 10 10 9 9 9 9 10 11 11 11 11 11 11 10 10 10 10 10 10 10 10 9 9 8 7 7 6 6 7 8 8 9
9 9 9 10 10 10 11 11 10 10 10 10 10 10 10 9 9 9 9 10 11 11 11 11 11 11 10 10 10 10 9 9 8 7 7 6 5 5 5 6 6 6 6 6 7
9 9 9 10 10 10 11 11 10 10 9 9 10 9 9 9 9 9 9 10 10 10 10 10 10 10 10 10 9 9 8 7 6 6 5 4 4 4 5 5 5 5 6 6 6
9 9 9 10 10 11 11 10 10 9 9 9 9 9 9 9 9 9 9 10 10 10 10 10 10 10 10 9 8 8 7 6 5 5 5 4 3 4 5 5 5 5 6 6 5
9 9 9 10 11 11 11 10 9 9 9 9 9 8 8 8 9 9 9 9 10 10 10 10 9 9 9 8 7 6 5 4 4 4 5 4 3 4 4 4 5 5 5 5 5
9 9 10 10 11 11 11 10 9 9 8 9 9 8 8 8 8 8 9 9 9 9 9 9 8 8 8 7 5 5 4 4 4 4 4 4 3 3 4 4 4 5 5 5 5
9 9 10 10 11 11 10 10 9 9 8 8 9 9 9 9 8 8 8 8 8 8 8 7 7 7 7 7 6 5 4 4 3 3 3 3 3 3 3 3 4 4 4 5 5
9 10 10 11 11 11 10 10 10 9 8 8 8 9 9 8 8 7 8 7 7 7 7 6 6 6 6 6 6 5 4 4 3 3 3 3 3 3 3 3 3 4 4 4 4
10 10 10 11 11 11 10 10 10 9 7 7 8 8 8 8 7 7 7 7 6 6 6 6 6 6 6 6 5 5 4 3 3 2 2 2 2 2 2 2 3 3 3 4 3
8 9 11 11 11 10 10 10 10 9 6 5 6 7 8 8 7 7 7 7 6 6 6 6 6 6 6 5 5 4 3 3 2 2 2 2 1 2 2 2 2 2 3 3 3
7 8 10 11 10 10 10 10 9 7 4 4 6 7 7 7 7 7 7 6 6 6 6 6 6 6 5 5 4 4 3 2 2 2 1 1 1 2 2 2 2 2 2 2 1
6 7 8 10 10 10 10 9 8 5 3 4 5 6 6 6 6 7 6 6 5 5 5 5 5 5 5 5 4 3 2 2 2 1 1 1 1 1 2 2 2 2 2 1 1
6 6 7 9 10 10 9 8 6 4 4 4 5 5 5 5 6 6 5 5 5 4 4 4 4 5 5 4 4 3 2 1 1 1 1 1 1 1 1 1 2 2 2 1 0
5 5 5 7 9 9 9 7 4 4 5 5 5 5 5 5 5 5 5 4 4 4 3 3 3 4 4 4 3 2 2 1 1 1 1 1 1 1 1 1 1 2 2 1 1
5 5 5 6 8 9 7 6 5 5 6 5 5 5 4 4 5 5 4 4 5 5 4 3 3 3 4 4 3 2 1 1 1 1 1 1 1 1 1 1 1 2 1 1 1
5 5 5 6 8 8 6 5 6 7 7 6 5 4 4 4 4 4 4 5 5 5 5 4 3 3 4 4 3 2 1 1 1 1 1 1 2 1 1 1 2 2 1 1 1
6 5 6 6 6 6 5 5 7 8 8 6 6 5 5 5 4 4 4 5 5 5 5 5 4 3 4 4 3 2 2 2 1 1 1 1 1 1 1 2 2 1 1 0 0
6 6 7 6 5 4 4 5 6 7 8 7 7 6 6 5 5 4 4 5 5 5 5 5 4 3 4 4 3 2 2 2 2 1 1 1 1 1 2 2 2 1 0 -0 -0
7 7 7 7 5 5 5 5 6 6 7 7 7 7 6 5 5 4 4 5 5 5 5 5 4 3 3 4 3 3 2 2 2 2 2 1 1 2 3 3 2 1 -0 -1 -1
8 8 8 7 6 6 5 5 5 6 7 7 7 7 6 5 5 5 5 5 5 5 5 5 4 3 3 3 3 3 2 2 2 2 2 1 2 3 3 3 2 1 0 -1 -1
9 9 8 8 7 7 6 6 6 6 7 7 7 7 6 5 5 5 5 5 5 5 5 5 4 3 3 4 3 2 2 2 3 2 2 1 2 3 4 3 2 1 0 -0 -1
9 9 9 8 8 7 7 7 6 6 6 6 6 6 6 5 5 5 6 6 5 5 5 4 3 3 3 3 3 2 2 3 3 2 2 2 3 4 4 3 1 1 0 0 -0
9 9 9 9 8 8 7 7 7 7 6 6 6 6 6 6 6 6 6 6 6 5 5 4 3 3 3 3 3 2 2 3 3 2 2 2 3 4 3 2 1 1 0 0 -0